Simultaneous Nadir Overpasses (SNOs) Predictions

Prediction of SNOs between METOP-B and NOAA-19 Satellite Orbit:

Table of predicted SNOs for the next 14.0 days since TLE Epoch: 2/10/2017
Index Date (METOP-B) Time (METOP-B) Lat,Lon (METOP-B) SZA (METOP-B ) Date (NOAA-19) Time (NOAA-19) Lat,Lon (NOAA-19) SZA (NOAA-19 ) Distance(km) Time Diff (sec)
1 02/16/2017 09:53:02 76.83, 35.22 88.95 02/16/2017 09:51:51 76.85, 35.24 88.97 1.89 71
2 02/16/2017 10:43:43 -76.84,-157.40 91.05 02/16/2017 10:42:50 -76.82,-157.42 91.07 2.01 53
3 02/16/2017 11:34:24 76.81, 9.81 88.91 02/16/2017 11:33:52 76.81, 9.87 88.91 1.57 32
4 02/16/2017 12:25:05 -76.82, 177.19 91.10 02/16/2017 12:24:51 -76.79, 177.21 91.13 3.43 14
5 02/16/2017 13:15:46 76.79, -15.60 88.86 02/16/2017 13:15:53 76.78, -15.50 88.85 2.82 7
6
